| time (UTC) | temp F | wind direction | speed knots | gust knots | rain 1hr in | rain 24hr in | rain mn in | humidity % | barometer mb |
| 20260506203703 | 60 | 341 | 5.2 | 13.9 | 0.00 | 0.13 | 0.13 | 74 | 1010.9 |
| 20260506203203 | 60 | 327 | 5.2 | 8.7 | 0.00 | 0.13 | 0.13 | 75 | 1010.9 |
| 20260506202706 | 60 | 21 | 1.7 | 10.4 | 0.00 | 0.13 | 0.13 | 75 | 1010.9 |
| 20260506202203 | 60 | 32 | 1.7 | 13.9 | 0.00 | 0.13 | 0.13 | 75 | 1010.7 |
| 20260506201703 | 60 | 29 | 4.3 | 7.0 | 0.00 | 0.13 | 0.13 | 75 | 1010.6 |
| 20260506201203 | 60 | 44 | 4.3 | 6.1 | 0.00 | 0.13 | 0.13 | 75 | 1010.6 |
| 20260506200703 | 60 | 319 | 5.2 | 7.8 | 0.00 | 0.13 | 0.13 | 75 | 1010.4 |
| 20260506200203 | 60 | 354 | 6.1 | 11.3 | 0.00 | 0.13 | 0.13 | 76 | 1010.3 |
| 20260506195705 | 60 | 33 | 5.2 | 11.3 | 0.00 | 0.13 | 0.13 | 76 | 1010.3 |
| 20260506195203 | 60 | 3 | 5.2 | 12.2 | 0.00 | 0.13 | 0.13 | 77 | 1010.1 |
| 20260506194703 | 60 | 339 | 5.2 | 11.3 | 0.00 | 0.13 | 0.13 | 78 | 1010.0 |
| 20260506194203 | 60 | 349 | 5.2 | 13.9 | 0.00 | 0.13 | 0.13 | 78 | 1010.0 |
| 20260506193705 | 61 | 320 | 6.1 | 13.9 | 0.00 | 0.13 | 0.13 | 79 | 1009.9 |
| 20260506193203 | 61 | 349 | 6.1 | 10.4 | 0.00 | 0.13 | 0.13 | 79 | 1009.8 |
| 20260506192703 | 61 | 344 | 6.1 | 12.2 | 0.00 | 0.13 | 0.13 | 79 | 1009.8 |
| 20260506192203 | 61 | 24 | 6.1 | 13.0 | 0.00 | 0.13 | 0.13 | 78 | 1009.5 |
| 20260506191203 | 61 | 350 | 7.0 | 13.0 | 0.00 | 0.13 | 0.13 | 78 | 1009.3 |
| 20260506190703 | 61 | 351 | 7.0 | 13.0 | 0.00 | 0.13 | 0.13 | 78 | 1009.1 |
| 20260506190203 | 62 | 336 | 7.0 | 11.3 | 0.00 | 0.13 | 0.13 | 77 | 1009.0 |
| 20260506185703 | 62 | 343 | 6.1 | 12.2 | 0.00 | 0.13 | 0.13 | 76 | 1009.0 |
| 20260506185204 | 62 | 346 | 6.1 | 13.0 | 0.00 | 0.13 | 0.13 | 75 | 1008.8 |
| 20260506184703 | 62 | 344 | 5.2 | 13.0 | 0.00 | 0.13 | 0.13 | 74 | 1008.7 |
| 20260506184203 | 62 | 352 | 5.2 | 8.7 | 0.00 | 0.13 | 0.13 | 73 | 1008.7 |
| 20260506183704 | 63 | 351 | 5.2 | 7.8 | 0.00 | 0.13 | 0.13 | 73 | 1008.5 |
| 20260506182703 | 63 | 347 | 5.2 | 8.7 | 0.00 | 0.13 | 0.13 | 73 | 1008.4 |
| 20260506181703 | 64 | 14 | 6.1 | 8.7 | 0.00 | 0.13 | 0.13 | 71 | 1008.0 |
| 20260506181203 | 64 | 343 | 6.1 | 10.4 | 0.00 | 0.13 | 0.13 | 69 | 1008.0 |
| 20260506180705 | 64 | 328 | 4.3 | 11.3 | 0.00 | 0.13 | 0.13 | 67 | 1007.9 |
| 20260506175703 | 65 | 25 | 4.3 | 11.3 | 0.00 | 0.13 | 0.13 | 63 | 1007.8 |
| 20260506175203 | 65 | 351 | 4.3 | 6.1 | 0.00 | 0.13 | 0.13 | 62 | 1007.7 |
| 20260506174703 | 65 | 5 | 5.2 | 8.7 | 0.00 | 0.13 | 0.13 | 61 | 1007.7 |
| 20260506174204 | 65 | 62 | 5.2 | 8.7 | 0.00 | 0.13 | 0.13 | 61 | 1007.7 |
| 20260506173704 | 66 | 21 | 6.1 | 11.3 | 0.00 | 0.13 | 0.13 | 60 | 1007.4 |
| 20260506173204 | 66 | 326 | 6.1 | 10.4 | 0.00 | 0.13 | 0.13 | 60 | 1007.2 |
| 20260506172703 | 66 | 326 | 6.1 | 7.8 | 0.00 | 0.13 | 0.13 | 60 | 1007.2 |
| 20260506172203 | 67 | 332 | 6.1 | 13.0 | 0.00 | 0.13 | 0.13 | 59 | 1007.1 |
| 20260506171703 | 67 | 5 | 4.3 | 11.3 | 0.00 | 0.13 | 0.13 | 57 | 1007.0 |
| 20260506171204 | 68 | 339 | 4.3 | 10.4 | 0.00 | 0.13 | 0.13 | 54 | 1007.0 |
| 20260506170704 | 68 | 335 | 5.2 | 7.8 | 0.00 | 0.13 | 0.13 | 53 | 1006.9 |
| 20260506170204 | 67 | 353 | 5.2 | 7.0 | 0.00 | 0.13 | 0.13 | 53 | 1006.9 |
| 20260506165703 | 67 | 317 | 5.2 | 13.0 | 0.00 | 0.13 | 0.13 | 54 | 1006.9 |
| 20260506164205 | 67 | 24 | 6.1 | 10.4 | 0.00 | 0.13 | 0.13 | 53 | 1007.0 |
| 20260506163703 | 67 | 356 | 5.2 | 12.2 | 0.00 | 0.13 | 0.13 | 52 | 1006.9 |
| 20260506163203 | 67 | 333 | 5.2 | 12.2 | 0.00 | 0.13 | 0.13 | 54 | 1006.9 |
| 20260506162703 | 68 | 337 | 5.2 | 8.7 | 0.00 | 0.13 | 0.13 | 55 | 1006.9 |
| 20260506162204 | 68 | 6 | 6.1 | 8.7 | 0.00 | 0.13 | 0.13 | 55 | 1006.8 |
| 20260506161705 | 68 | 341 | 7.8 | 10.4 | 0.00 | 0.13 | 0.13 | 55 | 1006.8 |
| 20260506160204 | 68 | 325 | 5.2 | 13.9 | 0.00 | 0.13 | 0.13 | 57 | 1006.7 |
| 20260506155203 | 68 | 317 | 7.0 | 11.3 | 0.00 | 0.13 | 0.13 | 58 | 1006.7 |
| 20260506154203 | 68 | 344 | 6.1 | 11.3 | 0.00 | 0.13 | 0.13 | 57 | 1006.7 |
| 20260506153704 | 69 | 332 | 5.2 | 13.0 | 0.00 | 0.13 | 0.13 | 58 | 1006.8 |
| 20260506153203 | 69 | 20 | 5.2 | 11.3 | 0.00 | 0.13 | 0.13 | 57 | 1006.8 |
| 20260506152703 | 69 | 355 | 4.3 | 7.8 | 0.00 | 0.13 | 0.13 | 57 | 1006.8 |
| 20260506152203 | 69 | 19 | 4.3 | 13.9 | 0.00 | 0.13 | 0.13 | 56 | 1006.8 |
| 20260506151704 | 70 | 328 | 5.2 | 13.0 | 0.00 | 0.13 | 0.13 | 56 | 1006.8 |
| 20260506151203 | 70 | 1 | 5.2 | 10.4 | 0.00 | 0.13 | 0.13 | 56 | 1006.8 |
| 20260506150706 | 69 | 343 | 5.2 | 13.0 | 0.00 | 0.13 | 0.13 | 56 | 1006.9 |
| 20260506150204 | 69 | 325 | 5.2 | 13.0 | 0.00 | 0.13 | 0.13 | 56 | 1006.9 |
| 20260506145703 | 69 | 312 | 0.0 | 0.9 | 0.00 | 0.13 | 0.13 | 53 | 1006.9 |
| 20260506145203 | 69 | 312 | 0.0 | 0.9 | 0.00 | 0.13 | 0.13 | 53 | 1006.8 |
| 20260506144703 | 69 | 312 | 0.0 | 1.7 | 0.00 | 0.13 | 0.13 | 53 | 1006.8 |
| 20260506144203 | 69 | 327 | 0.0 | 1.7 | 0.00 | 0.13 | 0.13 | 51 | 1006.8 |
| 20260506143703 | 69 | 341 | 0.0 | 1.7 | 0.00 | 0.13 | 0.13 | 51 | 1006.9 |
| 20260506143203 | 69 | 313 | 0.0 | 1.7 | 0.00 | 0.13 | 0.13 | 53 | 1007.0 |
| 20260506142704 | 69 | 10 | 1.7 | 0.0 | 0.00 | 0.13 | 0.13 | 52 | 1007.0 |
| 20260506141703 | 69 | 73 | 1.7 | 0.0 | 0.00 | 0.13 | 0.13 | 52 | 1007.1 |
| 20260506141203 | 69 | 73 | 1.7 | 4.3 | 0.00 | 0.13 | 0.13 | 52 | 1007.1 |
| 20260506140704 | 69 | 355 | 0.0 | 7.0 | 0.00 | 0.13 | 0.13 | 53 | 1007.2 |
| 20260506140203 | 69 | 6 | 0.0 | 5.2 | 0.00 | 0.13 | 0.13 | 54 | 1007.2 |
| 20260506135703 | 69 | 49 | 0.0 | 1.7 | 0.00 | 0.13 | 0.13 | 55 | 1007.2 |
| 20260506135203 | 68 | 135 | 0.0 | 0.0 | 0.00 | 0.13 | 0.13 | 55 | 1007.3 |
| 20260506134703 | 68 | 30 | 0.0 | 0.0 | 0.00 | 0.13 | 0.13 | 54 | 1007.4 |
| 20260506134203 | 68 | 30 | 0.0 | 0.0 | 0.00 | 0.13 | 0.13 | 54 | 1007.4 |
| 20260506133703 | 68 | 32 | 0.0 | 4.3 | 0.00 | 0.13 | 0.13 | 54 | 1007.4 |
| 20260506133203 | 68 | 337 | 0.0 | 5.2 | 0.00 | 0.13 | 0.13 | 54 | 1007.4 |
| 20260506132703 | 68 | 3 | 1.7 | 1.7 | 0.00 | 0.13 | 0.13 | 54 | 1007.4 |
| 20260506132203 | 68 | 27 | 1.7 | 5.2 | 0.00 | 0.13 | 0.13 | 55 | 1007.5 |
| 20260506131703 | 68 | 55 | 1.7 | 5.2 | 0.00 | 0.13 | 0.13 | 57 | 1007.5 |
| 20260506131203 | 68 | 55 | 1.7 | 5.2 | 0.00 | 0.13 | 0.13 | 57 | 1007.5 |
| 20260506130703 | 68 | 51 | 1.7 | 6.1 | 0.02 | 0.13 | 0.13 | 57 | 1007.5 |
| 20260506130203 | 68 | 30 | 1.7 | 1.7 | 0.02 | 0.13 | 0.13 | 57 | 1007.5 |
| 20260506125203 | 67 | 188 | 0.0 | 5.2 | 0.02 | 0.13 | 0.13 | 57 | 1007.5 |
| 20260506124703 | 67 | 162 | 1.7 | 2.6 | 0.02 | 0.13 | 0.13 | 59 | 1007.5 |
| 20260506124205 | 67 | 322 | 1.7 | 1.7 | 0.02 | 0.13 | 0.13 | 59 | 1007.5 |
| 20260506123703 | 67 | 335 | 1.7 | 6.1 | 0.02 | 0.13 | 0.13 | 59 | 1007.6 |
| 20260506123203 | 67 | 29 | 1.7 | 6.1 | 0.02 | 0.13 | 0.13 | 59 | 1007.6 |
| 20260506122703 | 67 | 177 | 1.7 | 7.0 | 0.02 | 0.13 | 0.13 | 58 | 1007.6 |
| 20260506122206 | 67 | 320 | 1.7 | 5.2 | 0.02 | 0.13 | 0.13 | 58 | 1007.6 |
| 20260506121704 | 67 | 176 | 1.7 | 6.1 | 0.02 | 0.13 | 0.13 | 58 | 1007.6 |
| 20260506120203 | 66 | 196 | 1.7 | 6.1 | 0.00 | 0.11 | 0.11 | 59 | 1007.6 |
| 20260506115703 | 66 | 183 | 2.6 | 5.2 | 0.00 | 0.11 | 0.11 | 58 | 1007.6 |
| 20260506115203 | 65 | 219 | 2.6 | 6.1 | 0.00 | 0.11 | 0.11 | 62 | 1007.7 |
| 20260506114203 | 65 | 180 | 1.7 | 7.0 | 0.00 | 0.11 | 0.11 | 61 | 1007.7 |
| 20260506113704 | 65 | 19 | 0.0 | 1.7 | 0.00 | 0.11 | 0.11 | 62 | 1007.8 |
| 20260506112703 | 65 | 174 | 1.7 | 4.3 | 0.00 | 0.11 | 0.11 | 62 | 1007.8 |
| 20260506112204 | 65 | 351 | 1.7 | 0.9 | 0.00 | 0.11 | 0.11 | 64 | 1007.9 |
| 20260506111703 | 64 | 9 | 1.7 | 4.3 | 0.00 | 0.11 | 0.11 | 65 | 1008.0 |
| 20260506110704 | 64 | 197 | 1.7 | 4.3 | 0.00 | 0.11 | 0.11 | 66 | 1008.1 |
| 20260506110203 | 64 | 156 | 1.7 | 7.0 | 0.00 | 0.11 | 0.11 | 65 | 1008.1 |
| 20260506105703 | 64 | 127 | 1.7 | 4.3 | 0.00 | 0.11 | 0.11 | 66 | 1008.1 |
| 20260506105203 | 64 | 150 | 1.7 | 4.3 | 0.00 | 0.11 | 0.11 | 68 | 1008.2 |
| 20260506104703 | 63 | 169 | 1.7 | 4.3 | 0.00 | 0.11 | 0.11 | 67 | 1008.2 |
| 20260506104204 | 63 | 341 | 1.7 | 5.2 | 0.00 | 0.11 | 0.11 | 68 | 1008.2 |
| 20260506103703 | 62 | 194 | 0.0 | 5.2 | 0.00 | 0.11 | 0.11 | 70 | 1008.2 |
| 20260506103204 | 62 | 10 | 0.0 | 5.2 | 0.00 | 0.11 | 0.11 | 73 | 1008.2 |
| 20260506102704 | 62 | 326 | 0.9 | 4.3 | 0.00 | 0.11 | 0.11 | 74 | 1008.2 |
| 20260506102203 | 61 | 25 | 0.9 | 4.3 | 0.00 | 0.11 | 0.11 | 75 | 1008.3 |
| 20260506101704 | 61 | 93 | 0.0 | 2.6 | 0.00 | 0.11 | 0.11 | 75 | 1008.3 |
| 20260506101203 | 60 | 113 | 0.0 | 4.3 | 0.00 | 0.11 | 0.11 | 76 | 1008.3 |
| 20260506100703 | 60 | 15 | 1.7 | 4.3 | 0.00 | 0.11 | 0.11 | 77 | 1008.4 |
| 20260506100203 | 60 | 0 | 1.7 | 1.7 | 0.00 | 0.11 | 0.11 | 76 | 1008.5 |
| 20260506095705 | 60 | 315 | 2.6 | 5.2 | 0.00 | 0.11 | 0.11 | 77 | 1008.5 |
| 20260506095203 | 60 | 11 | 2.6 | 4.3 | 0.00 | 0.11 | 0.11 | 78 | 1008.6 |
| 20260506094703 | 59 | 32 | 2.6 | 5.2 | 0.00 | 0.11 | 0.11 | 79 | 1008.6 |
| 20260506094203 | 59 | 346 | 2.6 | 8.7 | 0.00 | 0.11 | 0.11 | 79 | 1008.6 |
| 20260506093703 | 59 | 36 | 2.6 | 6.1 | 0.00 | 0.11 | 0.11 | 80 | 1008.7 |
| 20260506093203 | 58 | 33 | 2.6 | 7.0 | 0.00 | 0.11 | 0.11 | 81 | 1008.8 |
| 20260506092704 | 58 | 4 | 4.3 | 8.7 | 0.00 | 0.11 | 0.11 | 81 | 1008.8 |
| 20260506092205 | 58 | 14 | 4.3 | 5.2 | 0.00 | 0.11 | 0.11 | 82 | 1008.8 |
| 20260506091703 | 58 | 343 | 4.3 | 7.8 | 0.00 | 0.11 | 0.11 | 83 | 1008.8 |
| 20260506091204 | 57 | 23 | 4.3 | 6.1 | 0.00 | 0.11 | 0.11 | 83 | 1008.8 |
| 20260506090703 | 57 | 353 | 2.6 | 7.0 | 0.00 | 0.11 | 0.11 | 85 | 1008.9 |
| 20260506090203 | 56 | 317 | 2.6 | 8.7 | 0.00 | 0.12 | 0.11 | 85 | 1008.9 |
| 20260506085203 | 56 | 21 | 1.7 | 0.9 | 0.00 | 0.12 | 0.11 | 92 | 1008.9 |
| 20260506084206 | 56 | 21 | 1.7 | 6.1 | 0.00 | 0.12 | 0.11 | 92 | 1008.9 |
| 20260506083703 | 56 | 348 | 0.0 | 1.7 | 0.00 | 0.12 | 0.11 | 92 | 1008.9 |
| 20260506082703 | 56 | 35 | 0.0 | 1.7 | 0.00 | 0.12 | 0.11 | 92 | 1008.9 |
| 20260506082204 | 56 | 308 | 0.0 | 1.7 | 0.00 | 0.12 | 0.11 | 92 | 1008.8 |
| 20260506081703 | 57 | 338 | 0.0 | 1.7 | 0.00 | 0.13 | 0.11 | 94 | 1008.8 |
| 20260506081204 | 57 | 174 | 0.0 | 0.0 | 0.00 | 0.13 | 0.11 | 94 | 1008.8 |
| 20260506080703 | 57 | 174 | 0.0 | 0.0 | 0.00 | 0.13 | 0.11 | 94 | 1008.9 |
| 20260506080203 | 57 | 174 | 0.0 | 0.0 | 0.00 | 0.13 | 0.11 | 94 | 1008.9 |
| 20260506072203 | 56 | 174 | 0.0 | 0.9 | 0.00 | 0.15 | 0.11 | 95 | 1008.8 |
| 20260506071204 | 56 | 174 | 0.0 | 0.0 | 0.00 | 0.15 | 0.11 | 95 | 1008.8 |
| 20260506070703 | 56 | 174 | 0.0 | 0.0 | 0.00 | 0.16 | 0.11 | 95 | 1008.9 |
| 20260506070203 | 56 | 174 | 0.0 | 0.0 | 0.00 | 0.16 | 0.11 | 95 | 1008.9 |
| 20260506062203 | 56 | 174 | 0.0 | 0.0 | 0.02 | 0.18 | 0.11 | 95 | 1009.1 |
| 20260506061703 | 56 | 174 | 0.0 | 0.9 | 0.02 | 0.18 | 0.11 | 95 | 1009.1 |
| 20260506061203 | 56 | 174 | 0.0 | 0.0 | 0.03 | 0.18 | 0.11 | 95 | 1009.1 |
| 20260506060703 | 56 | 174 | 0.0 | 0.0 | 0.03 | 0.18 | 0.11 | 95 | 1009.2 |
| 20260506060204 | 56 | 174 | 0.0 | 0.0 | 0.03 | 0.18 | 0.11 | 95 | 1009.2 |
| 20260506051204 | 55 | 27 | 0.0 | 0.0 | 0.03 | 0.15 | 0.08 | 94 | 1009.4 |
| 20260506050706 | 55 | 335 | 0.0 | 0.9 | 0.03 | 0.15 | 0.08 | 94 | 1009.5 |
| 20260506050203 | 55 | 300 | 0.0 | 1.7 | 0.03 | 0.15 | 0.08 | 94 | 1009.5 |
| 20260506043703 | 55 | 328 | 0.0 | 0.0 | 0.03 | 0.15 | 0.07 | 94 | 1009.7 |
| 20260506043204 | 55 | 211 | 0.0 | 0.0 | 0.03 | 0.15 | 0.07 | 94 | 1009.7 |
| 20260506042703 | 55 | 210 | 0.0 | 0.9 | 0.04 | 0.14 | 0.06 | 94 | 1009.7 |
| 20260506042203 | 55 | 299 | 0.0 | 0.9 | 0.04 | 0.14 | 0.06 | 94 | 1009.6 |
| 20260506041703 | 55 | 298 | 0.0 | 1.7 | 0.05 | 0.14 | 0.06 | 94 | 1009.5 |
| 20260506041203 | 56 | 318 | 0.0 | 1.7 | 0.04 | 0.13 | 0.05 | 94 | 1009.5 |
| 20260506040703 | 56 | 319 | 0.0 | 1.7 | 0.04 | 0.13 | 0.05 | 94 | 1009.7 |
| 20260506040203 | 56 | 309 | 0.0 | 0.0 | 0.04 | 0.13 | 0.05 | 94 | 1009.9 |
| 20260506035704 | 56 | 309 | 0.0 | 0.0 | 0.04 | 0.13 | 0.05 | 94 | 1009.9 |
| 20260506035203 | 56 | 309 | 0.0 | 0.0 | 0.04 | 0.14 | 0.05 | 93 | 1009.8 |
| 20260506034704 | 56 | 309 | 0.0 | 0.0 | 0.04 | 0.14 | 0.05 | 93 | 1009.8 |
| 20260506034205 | 56 | 309 | 0.0 | 0.0 | 0.03 | 0.13 | 0.04 | 93 | 1009.8 |
| 20260506033703 | 56 | 309 | 0.0 | 1.7 | 0.03 | 0.13 | 0.04 | 93 | 1009.9 |
| 20260506033204 | 56 | 319 | 0.0 | 0.0 | 0.03 | 0.13 | 0.04 | 93 | 1010.0 |
| 20260506032703 | 56 | 320 | 0.0 | 0.0 | 0.01 | 0.11 | 0.02 | 93 | 1010.0 |
| 20260506031204 | 56 | 28 | 0.0 | 1.7 | 0.00 | 0.10 | 0.01 | 92 | 1010.2 |
| 20260506030704 | 56 | 17 | 0.0 | 0.0 | 0.00 | 0.10 | 0.01 | 92 | 1010.4 |
| 20260506030203 | 56 | 328 | 0.0 | 0.0 | 0.00 | 0.10 | 0.01 | 92 | 1010.6 |
| 20260506025704 | 56 | 328 | 0.0 | 0.0 | 0.00 | 0.10 | 0.01 | 92 | 1010.6 |
| 20260506025204 | 56 | 328 | 0.0 | 0.0 | 0.00 | 0.10 | 0.01 | 92 | 1010.6 |
| 20260506024704 | 56 | 121 | 0.0 | 1.7 | 0.00 | 0.10 | 0.01 | 92 | 1010.6 |
| 20260506024203 | 56 | 14 | 0.0 | 1.7 | 0.00 | 0.10 | 0.01 | 92 | 1010.6 |
| 20260506023703 | 56 | 45 | 0.0 | 1.7 | 0.00 | 0.10 | 0.01 | 92 | 1010.6 |
| 20260506023204 | 56 | 8 | 0.0 | 1.7 | 0.00 | 0.10 | 0.01 | 92 | 1010.7 |
| 20260506022706 | 56 | 34 | 0.0 | 1.7 | 0.00 | 0.10 | 0.01 | 92 | 1010.7 |
| 20260506022203 | 56 | 50 | 0.0 | 1.7 | 0.00 | 0.10 | 0.01 | 92 | 1010.7 |
| 20260506021703 | 56 | 39 | 0.9 | 0.9 | 0.00 | 0.10 | 0.01 | 92 | 1010.8 |
| 20260506021203 | 56 | 9 | 0.9 | 4.3 | 0.00 | 0.10 | 0.01 | 92 | 1010.8 |
| 20260506020704 | 56 | 39 | 0.0 | 5.2 | 0.00 | 0.10 | 0.01 | 92 | 1010.9 |
| 20260506015703 | 56 | 2 | 0.0 | 1.7 | 0.00 | 0.10 | 0.01 | 92 | 1010.9 |
| 20260506014204 | 56 | 29 | 0.0 | 1.7 | 0.00 | 0.10 | 0.01 | 91 | 1010.8 |
| 20260506013203 | 57 | 11 | 0.0 | 1.7 | 0.01 | 0.10 | 0.01 | 91 | 1011.0 |
| 20260506012705 | 57 | 10 | 0.0 | 0.9 | 0.01 | 0.10 | 0.01 | 91 | 1011.0 |
| 20260506012203 | 57 | 319 | 0.0 | 0.9 | 0.01 | 0.10 | 0.01 | 91 | 1011.1 |
| 20260506011703 | 57 | 318 | 0.0 | 0.9 | 0.01 | 0.10 | 0.01 | 91 | 1011.1 |
| 20260506011203 | 57 | 318 | 0.0 | 0.0 | 0.01 | 0.10 | 0.01 | 90 | 1011.1 |
| 20260506010703 | 57 | 323 | 0.0 | 0.9 | 0.01 | 0.10 | 0.01 | 90 | 1011.3 |
| 20260506010205 | 57 | 294 | 0.0 | 1.7 | 0.01 | 0.10 | 0.01 | 90 | 1011.5 |
| 20260506005703 | 57 | 349 | 0.0 | 0.0 | 0.01 | 0.10 | 0.01 | 90 | 1011.5 |
| 20260506005203 | 57 | 349 | 0.0 | 0.0 | 0.01 | 0.10 | 0.01 | 90 | 1011.6 |
| 20260506004704 | 57 | 349 | 0.0 | 0.0 | 0.01 | 0.10 | 0.01 | 90 | 1011.7 |
| 20260506004203 | 57 | 349 | 0.0 | 0.0 | 0.01 | 0.10 | 0.01 | 90 | 1011.7 |
| 20260506003703 | 57 | 349 | 0.0 | 0.0 | 0.00 | 0.09 | 0.00 | 89 | 1011.9 |
| 20260506003205 | 57 | 349 | 0.0 | 0.0 | 0.00 | 0.09 | 0.00 | 89 | 1012.1 |
| 20260506002203 | 57 | 168 | 0.0 | 2.6 | 0.00 | 0.09 | 0.00 | 89 | 1012.3 |
| 20260506001203 | 57 | 316 | 0.0 | 1.7 | 0.00 | 0.09 | 0.00 | 89 | 1012.4 |
| 20260506000703 | 57 | 316 | 0.0 | 0.9 | 0.00 | 0.09 | 0.00 | 89 | 1012.4 |
| 20260506000205 | 57 | 318 | 0.0 | 0.0 | 0.00 | 0.09 | 0.00 | 89 | 1012.4 |
| 20260505235703 | 57 | 317 | 0.0 | 0.0 | 0.00 | 0.09 | 0.00 | 89 | 1012.4 |
| 20260505235204 | 57 | 318 | 0.0 | 0.0 | 0.00 | 0.09 | 0.00 | 89 | 1012.5 |
| 20260505234703 | 57 | 315 | 0.0 | 0.0 | 0.00 | 0.09 | 0.00 | 89 | 1012.5 |
| 20260505233203 | 57 | 201 | 0.0 | 0.9 | 0.00 | 0.09 | 0.00 | 89 | 1012.6 |
| 20260505232703 | 57 | 224 | 0.0 | 0.9 | 0.00 | 0.09 | 0.00 | 88 | 1012.6 |
| 20260505232203 | 57 | 192 | 0.0 | 0.9 | 0.00 | 0.09 | 0.00 | 88 | 1012.7 |
| 20260505231705 | 57 | 192 | 0.0 | 1.7 | 0.00 | 0.09 | 0.00 | 88 | 1012.7 |
| 20260505231203 | 57 | 2 | 0.0 | 2.6 | 0.00 | 0.09 | 0.00 | 88 | 1012.7 |
| 20260505230704 | 57 | 11 | 0.0 | 0.9 | 0.00 | 0.09 | 0.00 | 88 | 1012.6 |
| 20260505230204 | 57 | 16 | 0.0 | 0.0 | 0.00 | 0.09 | 0.00 | 88 | 1012.6 |
| 20260505225704 | 57 | 329 | 0.0 | 1.7 | 0.00 | 0.09 | 0.00 | 88 | 1012.6 |
| 20260505225204 | 57 | 321 | 0.0 | 0.9 | 0.00 | 0.09 | 0.00 | 88 | 1012.9 |
| 20260505224704 | 57 | 356 | 0.0 | 0.0 | 0.00 | 0.09 | 0.00 | 88 | 1013.1 |
| 20260505224204 | 57 | 356 | 0.0 | 1.7 | 0.00 | 0.09 | 0.00 | 88 | 1013.1 |
| 20260505223704 | 57 | 21 | 1.7 | 0.0 | 0.00 | 0.09 | 0.00 | 88 | 1013.0 |
| 20260505223203 | 57 | 36 | 1.7 | 0.9 | 0.00 | 0.09 | 0.00 | 88 | 1012.9 |
| 20260505222705 | 57 | 173 | 0.0 | 4.3 | 0.00 | 0.09 | 0.00 | 88 | 1012.9 |
| 20260505222204 | 57 | 190 | 0.0 | 6.1 | 0.00 | 0.09 | 0.00 | 87 | 1012.9 |
| 20260505221703 | 57 | 260 | 0.0 | 1.7 | 0.00 | 0.09 | 0.00 | 87 | 1012.8 |
| 20260505221203 | 58 | 7 | 0.0 | 0.9 | 0.00 | 0.09 | 0.00 | 87 | 1012.8 |
| 20260505220703 | 58 | 27 | 0.0 | 1.7 | 0.00 | 0.09 | 0.00 | 87 | 1012.9 |
| 20260505220204 | 58 | 23 | 0.0 | 0.9 | 0.00 | 0.09 | 0.00 | 87 | 1012.9 |
| 20260505215704 | 58 | 9 | 0.0 | 0.0 | 0.00 | 0.09 | 0.09 | 87 | 1012.9 |
| 20260505215203 | 58 | 9 | 0.0 | 0.9 | 0.00 | 0.09 | 0.09 | 87 | 1013.1 |
| 20260505214704 | 58 | 18 | 0.0 | 0.9 | 0.00 | 0.09 | 0.09 | 87 | 1013.3 |
| 20260505214205 | 58 | 196 | 0.0 | 0.9 | 0.00 | 0.09 | 0.09 | 87 | 1013.3 |
| 20260505213206 | 58 | 198 | 0.0 | 1.7 | 0.00 | 0.09 | 0.09 | 87 | 1013.4 |
| 20260505212704 | 58 | 198 | 0.0 | 0.9 | 0.00 | 0.09 | 0.09 | 87 | 1013.4 |
| 20260505212204 | 58 | 200 | 0.0 | 1.7 | 0.00 | 0.09 | 0.09 | 87 | 1013.4 |
| 20260505211705 | 58 | 201 | 0.0 | 1.7 | 0.00 | 0.09 | 0.09 | 87 | 1013.4 |
| 20260505211203 | 58 | 186 | 0.0 | 0.9 | 0.00 | 0.09 | 0.09 | 87 | 1013.4 |
| 20260505210705 | 58 | 182 | 0.0 | 0.0 | 0.00 | 0.09 | 0.09 | 87 | 1013.4 |
| 20260505204204 | 58 | 182 | 0.0 | 0.9 | 0.00 | 0.09 | 0.09 | 87 | 1013.5 |